EJU36KU LGKR-LFRS

Flight info

Callsign EJU36KU
Flight time 2h 51m
Altitude 38000
Route TIGRA DCT ROBOT DCT ATRUP DCT PIS DCT GEKBA DCT ROLIR DCT BEBIX DCT TUPAR UM184 LUGEN
Aircraft A319/M-SDE2E3FGIJ1RWXYZ/LB1

Departure

Time 2026-04-27 19:43
Airport Corfu Ioannis Kapodistrias International Airport (LGKR)

Arrival

Time 2026-04-27 22:35
Airport Nantes Atlantique Airport (LFRS)
Time Latitude Longitude Altitude Speed Heading
2026-04-27 19:18 39.60706 19.91351 19 ft 0 kts 79°
2026-04-27 19:31 39.60703 19.91329 -9 ft 4 kts 79°
2026-04-27 19:31 39.60698 19.91295 20 ft 4 kts 81°
2026-04-27 19:32 39.60695 19.91260 22 ft 4 kts 92°
2026-04-27 19:32 39.60699 19.91227 20 ft 4 kts 122°
2026-04-27 19:32 39.60712 19.91213 21 ft 1 kts 168°
2026-04-27 19:32 39.60716 19.91212 20 ft 0 kts 168°
2026-04-27 19:36 39.60712 19.91212 21 ft 0 kts 168°
2026-04-27 19:38 39.60704 19.91215 19 ft 3 kts 168°
2026-04-27 19:38 39.60670 19.91224 19 ft 5 kts 168°
2026-04-27 19:39 39.60639 19.91231 21 ft 4 kts 174°
2026-04-27 19:39 39.60614 19.91228 20 ft 4 kts 192°
2026-04-27 19:39 39.60586 19.91206 19 ft 6 kts 217°
2026-04-27 19:39 39.60536 19.91168 18 ft 11 kts 204°
2026-04-27 19:40 39.60454 19.91151 19 ft 13 kts 177°
2026-04-27 19:40 39.60351 19.91175 20 ft 16 kts 168°
2026-04-27 19:40 39.60231 19.91205 21 ft 19 kts 169°
2026-04-27 19:40 39.60093 19.91241 21 ft 22 kts 168°
2026-04-27 19:41 39.59937 19.91281 23 ft 24 kts 169°
2026-04-27 19:41 39.59763 19.91325 22 ft 27 kts 168°
2026-04-27 19:41 39.59578 19.91374 18 ft 27 kts 169°
2026-04-27 19:41 39.59391 19.91423 18 ft 25 kts 169°
2026-04-27 19:42 39.59248 19.91459 18 ft 19 kts 169°
2026-04-27 19:42 39.59176 19.91510 17 ft 9 kts 165°
2026-04-27 19:42 39.59167 19.91461 19 ft 7 kts 342°
2026-04-27 19:42 39.59220 19.91465 19 ft 8 kts 353°
2026-04-27 19:43 39.59293 19.91446 19 ft 24 kts 349°
2026-04-27 19:43 39.59739 19.91331 22 ft 102 kts 348°
2026-04-27 19:43 39.60640 19.91097 130 ft 148 kts 348°
2026-04-27 19:43 39.61657 19.90836 771 ft 150 kts 349°
2026-04-27 19:44 39.62692 19.90588 1389 ft 152 kts 350°
2026-04-27 19:44 39.63737 19.90338 2021 ft 153 kts 350°
2026-04-27 19:44 39.64754 19.89918 2588 ft 158 kts 326°
2026-04-27 19:44 39.65505 19.88881 3161 ft 159 kts 299°
2026-04-27 19:45 39.65826 19.87457 3548 ft 176 kts 270°
2026-04-27 19:45 39.65573 19.85825 3889 ft 195 kts 252°
2026-04-27 19:45 39.65182 19.84044 4231 ft 216 kts 253°
2026-04-27 19:45 39.64773 19.82106 4778 ft 227 kts 253°
2026-04-27 19:46 39.64486 19.80070 5498 ft 233 kts 270°
2026-04-27 19:46 39.64831 19.78005 6265 ft 243 kts 293°
2026-04-27 19:46 39.65681 19.75991 6724 ft 266 kts 299°
2026-04-27 19:46 39.66651 19.73847 7314 ft 282 kts 300°
2026-04-27 19:47 39.67672 19.71643 8182 ft 287 kts 300°
2026-04-27 19:47 39.68711 19.69404 9105 ft 292 kts 300°
2026-04-27 19:47 39.69760 19.67122 10016 ft 296 kts 299°
2026-04-27 19:47 39.70829 19.64765 10531 ft 314 kts 299°
2026-04-27 19:48 39.71960 19.62237 11034 ft 330 kts 299°
2026-04-27 19:48 39.73119 19.59642 11835 ft 334 kts 299°
2026-04-27 19:48 39.74287 19.57027 12717 ft 336 kts 299°
2026-04-27 19:48 39.75461 19.54398 13604 ft 337 kts 300°
2026-04-27 19:49 39.76639 19.51753 14411 ft 339 kts 300°
2026-04-27 19:49 39.77820 19.49141 15146 ft 341 kts 303°
2026-04-27 19:49 39.79224 19.46632 15870 ft 344 kts 306°
2026-04-27 19:49 39.80660 19.44130 16592 ft 347 kts 307°
2026-04-27 19:50 39.82111 19.41602 17307 ft 350 kts 307°
2026-04-27 19:50 39.83569 19.39053 18031 ft 353 kts 307°
2026-04-27 19:50 39.85035 19.36479 18696 ft 355 kts 307°
2026-04-27 19:50 39.86510 19.33881 19317 ft 358 kts 307°
2026-04-27 19:51 39.87994 19.31268 19941 ft 360 kts 307°
2026-04-27 19:51 39.89486 19.28640 20584 ft 362 kts 307°
2026-04-27 19:51 39.90987 19.25991 21211 ft 365 kts 307°
2026-04-27 19:51 39.92497 19.23323 21840 ft 367 kts 307°
2026-04-27 19:52 39.94018 19.20638 22467 ft 369 kts 306°
2026-04-27 19:52 39.95030 19.18849 22878 ft 371 kts 306°
2026-04-27 19:52 39.97085 19.15217 23703 ft 374 kts 306°
2026-04-27 19:52 39.98633 19.12484 24205 ft 376 kts 306°
2026-04-27 19:53 40.01748 19.06966 25191 ft 380 kts 306°
2026-04-27 19:53 40.03316 19.04177 25663 ft 382 kts 306°
2026-04-27 19:53 40.04893 19.01370 26135 ft 384 kts 306°
2026-04-27 19:54 40.06352 18.98441 26575 ft 387 kts 300°
2026-04-27 19:54 40.07687 18.95382 27028 ft 389 kts 300°
2026-04-27 19:54 40.09029 18.92306 27476 ft 391 kts 300°
2026-04-27 19:54 40.10376 18.89212 27921 ft 393 kts 300°
2026-04-27 19:55 40.11715 18.86138 28356 ft 396 kts 300°
2026-04-27 19:55 40.13079 18.83004 28792 ft 398 kts 299°
2026-04-27 19:55 40.14452 18.79851 29220 ft 400 kts 299°
2026-04-27 19:55 40.15832 18.76681 29636 ft 403 kts 299°
2026-04-27 19:56 40.17221 18.73489 30047 ft 405 kts 299°
2026-04-27 19:56 40.18615 18.70283 30407 ft 407 kts 299°
2026-04-27 19:56 40.20016 18.67053 30754 ft 409 kts 299°
2026-04-27 19:56 40.21421 18.63812 31104 ft 411 kts 299°
2026-04-27 19:57 40.22830 18.60549 31442 ft 412 kts 299°
2026-04-27 19:57 40.24242 18.57277 31789 ft 414 kts 299°
2026-04-27 19:57 40.25654 18.53998 32260 ft 412 kts 299°
2026-04-27 19:57 40.27055 18.50738 32760 ft 410 kts 299°
2026-04-27 19:58 40.28448 18.47491 33277 ft 407 kts 299°
2026-04-27 19:58 40.29833 18.44267 33788 ft 405 kts 299°
2026-04-27 19:58 40.31214 18.41055 34241 ft 404 kts 299°
2026-04-27 19:58 40.32589 18.37853 34620 ft 403 kts 299°
2026-04-27 19:59 40.33963 18.34646 34974 ft 403 kts 299°
2026-04-27 19:59 40.35332 18.31444 35312 ft 403 kts 299°
2026-04-27 19:59 40.36701 18.28241 35630 ft 403 kts 299°
2026-04-27 19:59 40.38068 18.25038 35951 ft 403 kts 299°
2026-04-27 20:00 40.39435 18.21833 36260 ft 402 kts 299°
2026-04-27 20:00 40.40801 18.18626 36567 ft 402 kts 299°
2026-04-27 20:00 40.42163 18.15424 36861 ft 402 kts 299°
2026-04-27 20:00 40.43525 18.12220 37151 ft 402 kts 299°
2026-04-27 20:01 40.44888 18.09016 37433 ft 402 kts 299°
2026-04-27 20:01 40.46250 18.05812 37703 ft 402 kts 299°
2026-04-27 20:01 40.47609 18.02603 37971 ft 402 kts 299°
2026-04-27 20:01 40.48966 17.99392 38091 ft 402 kts 299°
2026-04-27 20:02 40.51673 17.92983 38108 ft 401 kts 299°
2026-04-27 20:02 40.54380 17.86578 38107 ft 400 kts 299°
2026-04-27 20:03 40.57063 17.80219 38086 ft 400 kts 299°
2026-04-27 20:03 40.59761 17.73810 38086 ft 400 kts 299°
2026-04-27 20:04 40.62453 17.67391 38090 ft 401 kts 299°
2026-04-27 20:04 40.64706 17.61994 38083 ft 402 kts 299°
2026-04-27 20:05 40.67831 17.54497 38084 ft 402 kts 299°
2026-04-27 20:05 40.70523 17.48030 38091 ft 403 kts 299°
2026-04-27 20:06 40.73289 17.41609 38096 ft 403 kts 301°
2026-04-27 20:06 40.76182 17.35281 38090 ft 403 kts 301°
2026-04-27 20:07 40.79075 17.28937 38093 ft 404 kts 301°
2026-04-27 20:07 40.81940 17.22565 38095 ft 404 kts 301°
2026-04-27 20:08 40.84793 17.16171 38095 ft 404 kts 301°
2026-04-27 20:08 40.87649 17.09770 38097 ft 404 kts 301°
2026-04-27 20:09 40.90499 17.03361 38100 ft 404 kts 301°
2026-04-27 20:09 40.93341 16.96943 38102 ft 405 kts 301°
2026-04-27 20:10 40.95711 16.91599 38098 ft 405 kts 301°
2026-04-27 20:10 40.98571 16.85158 38080 ft 406 kts 301°
2026-04-27 20:11 41.01423 16.78697 38081 ft 407 kts 301°
2026-04-27 20:11 41.04268 16.72223 38075 ft 407 kts 301°
2026-04-27 20:12 41.07116 16.65742 38070 ft 407 kts 301°
2026-04-27 20:12 41.09965 16.59252 38074 ft 408 kts 301°
2026-04-27 20:13 41.12814 16.52749 38079 ft 408 kts 301°
2026-04-27 20:13 41.15639 16.46280 38125 ft 408 kts 301°
2026-04-27 20:14 41.18478 16.39751 38115 ft 408 kts 301°
2026-04-27 20:14 41.21315 16.33224 38101 ft 408 kts 301°
2026-04-27 20:15 41.24153 16.26689 38089 ft 408 kts 301°
2026-04-27 20:15 41.26989 16.20139 38092 ft 409 kts 301°
2026-04-27 20:16 41.29823 16.13590 38090 ft 409 kts 301°
2026-04-27 20:16 41.32658 16.07029 38087 ft 409 kts 301°
2026-04-27 20:17 41.35466 16.00497 38085 ft 409 kts 300°
2026-04-27 20:17 41.38285 15.93912 38077 ft 410 kts 300°
2026-04-27 20:18 41.41109 15.87319 38084 ft 410 kts 300°
2026-04-27 20:18 41.43931 15.80706 38091 ft 410 kts 300°
2026-04-27 20:19 41.46750 15.74088 38096 ft 411 kts 300°
2026-04-27 20:19 41.49565 15.67458 38103 ft 411 kts 300°
2026-04-27 20:20 41.52385 15.60828 38101 ft 411 kts 300°
2026-04-27 20:20 41.55204 15.54189 38099 ft 411 kts 300°
2026-04-27 20:21 41.58015 15.47534 38100 ft 411 kts 300°
2026-04-27 20:21 41.60806 15.40922 38097 ft 412 kts 300°
2026-04-27 20:22 41.63616 15.34254 38098 ft 412 kts 300°
2026-04-27 20:22 41.66419 15.27579 38085 ft 412 kts 300°
2026-04-27 20:23 41.69217 15.20901 38094 ft 412 kts 300°
2026-04-27 20:23 41.72012 15.14214 38095 ft 412 kts 300°
2026-04-27 20:24 41.74801 15.07517 38095 ft 412 kts 300°
2026-04-27 20:24 41.77585 15.00813 38100 ft 412 kts 300°
2026-04-27 20:25 41.80369 14.94109 38102 ft 412 kts 300°
2026-04-27 20:25 41.83150 14.87398 38104 ft 412 kts 300°
2026-04-27 20:26 41.85926 14.80683 38106 ft 412 kts 300°
2026-04-27 20:26 41.88693 14.73959 38106 ft 412 kts 300°
2026-04-27 20:27 41.91456 14.67227 38108 ft 412 kts 300°
2026-04-27 20:27 41.94219 14.60494 38111 ft 412 kts 300°
2026-04-27 20:28 41.96981 14.53759 38108 ft 412 kts 300°
2026-04-27 20:28 41.99275 14.48157 38116 ft 412 kts 300°
2026-04-27 20:29 42.02494 14.40271 38117 ft 411 kts 300°
2026-04-27 20:29 42.05241 14.33520 38123 ft 412 kts 300°
2026-04-27 20:30 42.07973 14.26752 38122 ft 412 kts 299°
2026-04-27 20:30 42.10707 14.19977 38123 ft 411 kts 300°
2026-04-27 20:31 42.13449 14.13209 38118 ft 412 kts 300°
2026-04-27 20:31 42.16166 14.06469 38121 ft 412 kts 299°
2026-04-27 20:32 42.18898 13.99680 38130 ft 412 kts 299°
2026-04-27 20:32 42.21623 13.92882 38131 ft 412 kts 299°
2026-04-27 20:33 42.24343 13.86085 38134 ft 412 kts 299°
2026-04-27 20:33 42.27060 13.79282 38132 ft 412 kts 299°
2026-04-27 20:34 42.29773 13.72477 38137 ft 411 kts 299°
2026-04-27 20:34 42.32473 13.65662 38139 ft 412 kts 299°
2026-04-27 20:35 42.35174 13.58842 38151 ft 411 kts 299°
2026-04-27 20:35 42.38025 13.52135 38152 ft 411 kts 302°
2026-04-27 20:36 42.40984 13.45516 38138 ft 411 kts 302°
2026-04-27 20:36 42.43925 13.38878 38152 ft 411 kts 301°
2026-04-27 20:37 42.46820 13.32199 38150 ft 411 kts 301°
2026-04-27 20:37 42.49704 13.25511 38148 ft 411 kts 301°
2026-04-27 20:38 42.52594 13.18824 38146 ft 411 kts 301°
2026-04-27 20:38 42.55481 13.12141 38134 ft 411 kts 301°
2026-04-27 20:39 42.58343 13.05493 38137 ft 411 kts 301°
2026-04-27 20:39 42.61219 12.98786 38135 ft 411 kts 301°
2026-04-27 20:40 42.64094 12.92079 38139 ft 411 kts 301°
2026-04-27 20:40 42.66961 12.85361 38136 ft 411 kts 301°
2026-04-27 20:41 42.69828 12.78635 38138 ft 411 kts 301°
2026-04-27 20:41 42.72687 12.71907 38123 ft 411 kts 301°
2026-04-27 20:42 42.75543 12.65173 38123 ft 411 kts 301°
2026-04-27 20:42 42.78395 12.58433 38126 ft 411 kts 301°
2026-04-27 20:43 42.81241 12.51679 38116 ft 411 kts 301°
2026-04-27 20:43 42.84087 12.44922 38128 ft 411 kts 301°
2026-04-27 20:44 42.86912 12.38207 38111 ft 411 kts 301°
2026-04-27 20:44 42.89745 12.31440 38110 ft 411 kts 301°
2026-04-27 20:45 42.92582 12.24661 38115 ft 411 kts 301°
2026-04-27 20:45 42.95419 12.17881 38129 ft 411 kts 301°
2026-04-27 20:46 42.98255 12.11093 38133 ft 412 kts 301°
2026-04-27 20:46 43.01080 12.04287 38138 ft 412 kts 300°
2026-04-27 20:47 43.03893 11.97474 38139 ft 412 kts 300°
2026-04-27 20:47 43.06708 11.90659 38136 ft 412 kts 300°
2026-04-27 20:48 43.09050 11.84989 38136 ft 412 kts 300°
2026-04-27 20:48 43.12336 11.77003 38135 ft 412 kts 300°
2026-04-27 20:49 43.15140 11.70164 38136 ft 412 kts 300°
2026-04-27 20:49 43.17947 11.63332 38123 ft 412 kts 300°
2026-04-27 20:50 43.20747 11.56480 38121 ft 412 kts 300°
2026-04-27 20:50 43.23536 11.49625 38122 ft 412 kts 300°
2026-04-27 20:51 43.26326 11.42764 38134 ft 412 kts 300°
2026-04-27 20:51 43.29114 11.35896 38129 ft 412 kts 300°
2026-04-27 20:52 43.31893 11.29029 38123 ft 412 kts 300°
2026-04-27 20:52 43.34668 11.22152 38123 ft 411 kts 300°
2026-04-27 20:53 43.37424 11.15323 38118 ft 412 kts 300°
2026-04-27 20:53 43.40199 11.08431 38121 ft 412 kts 300°
2026-04-27 20:54 43.44345 10.98067 38118 ft 412 kts 300°
2026-04-27 20:55 43.47105 10.91152 38124 ft 412 kts 300°
2026-04-27 20:55 43.49866 10.84230 38121 ft 412 kts 300°
2026-04-27 20:56 43.52623 10.77302 38119 ft 412 kts 300°
2026-04-27 20:56 43.55369 10.70372 38121 ft 412 kts 300°
2026-04-27 20:57 43.58109 10.63432 38116 ft 412 kts 300°
2026-04-27 20:57 43.60850 10.56499 38133 ft 412 kts 300°
2026-04-27 20:58 43.63562 10.49605 38147 ft 411 kts 299°
2026-04-27 20:58 43.66288 10.42656 38141 ft 411 kts 300°
2026-04-27 20:59 43.68572 10.35422 38140 ft 413 kts 290°
2026-04-27 20:59 43.70375 10.27892 38106 ft 413 kts 290°
2026-04-27 21:00 43.72177 10.20358 38111 ft 413 kts 290°
2026-04-27 21:00 43.73972 10.12825 38114 ft 413 kts 289°
2026-04-27 21:01 43.75768 10.05283 38121 ft 413 kts 289°
2026-04-27 21:01 43.77558 9.97732 38122 ft 413 kts 289°
2026-04-27 21:02 43.79339 9.90171 38123 ft 413 kts 289°
2026-04-27 21:02 43.81113 9.82611 38126 ft 413 kts 289°
2026-04-27 21:03 43.82590 9.76336 38136 ft 412 kts 289°
2026-04-27 21:03 43.84360 9.68797 38140 ft 411 kts 289°
2026-04-27 21:04 43.86113 9.61266 38137 ft 411 kts 289°
2026-04-27 21:04 43.87858 9.53733 38136 ft 410 kts 289°
2026-04-27 21:05 43.89604 9.46204 38125 ft 410 kts 289°
2026-04-27 21:05 43.91341 9.38684 38136 ft 409 kts 289°
2026-04-27 21:06 43.93069 9.31178 38135 ft 408 kts 289°
2026-04-27 21:06 43.94792 9.23672 38138 ft 408 kts 289°
2026-04-27 21:07 43.96489 9.16223 38139 ft 407 kts 289°
2026-04-27 21:07 43.98190 9.08724 38129 ft 407 kts 289°
2026-04-27 21:08 43.99888 9.01232 38141 ft 406 kts 289°
2026-04-27 21:08 44.01583 8.93754 38139 ft 405 kts 289°
2026-04-27 21:09 44.03265 8.86287 38133 ft 405 kts 289°
2026-04-27 21:09 44.04944 8.78821 38129 ft 404 kts 289°
2026-04-27 21:10 44.06610 8.71358 38122 ft 404 kts 289°
2026-04-27 21:10 44.08275 8.63898 38122 ft 403 kts 289°
2026-04-27 21:11 44.09933 8.56452 38124 ft 403 kts 288°
2026-04-27 21:11 44.11584 8.49006 38134 ft 402 kts 288°
2026-04-27 21:12 44.13224 8.41580 38132 ft 401 kts 288°
2026-04-27 21:12 44.14855 8.34158 38119 ft 401 kts 288°
2026-04-27 21:13 44.16471 8.26744 38121 ft 399 kts 288°
2026-04-27 21:13 44.18081 8.19351 38114 ft 399 kts 288°
2026-04-27 21:14 44.19689 8.11960 38105 ft 398 kts 288°
2026-04-27 21:14 44.21281 8.04632 38104 ft 398 kts 288°
2026-04-27 21:15 44.22881 7.97254 38101 ft 397 kts 288°
2026-04-27 21:15 44.24472 7.89881 38100 ft 397 kts 287°
2026-04-27 21:16 44.26045 7.82510 38095 ft 396 kts 287°
2026-04-27 21:16 44.27876 7.75281 38082 ft 395 kts 295°
2026-04-27 21:17 44.30156 7.68304 38069 ft 395 kts 295°
2026-04-27 21:17 44.32422 7.61309 38067 ft 395 kts 295°
2026-04-27 21:18 44.34679 7.54318 38062 ft 395 kts 294°
2026-04-27 21:18 44.36932 7.47325 38083 ft 394 kts 294°
2026-04-27 21:19 44.39178 7.40340 38095 ft 394 kts 294°
2026-04-27 21:19 44.41419 7.33358 38094 ft 393 kts 294°
2026-04-27 21:20 44.44761 7.22893 38103 ft 392 kts 294°
2026-04-27 21:20 44.46983 7.15913 38098 ft 393 kts 294°
2026-04-27 21:21 44.49189 7.08973 38112 ft 392 kts 294°
2026-04-27 21:21 44.51404 7.01994 38101 ft 391 kts 294°
2026-04-27 21:22 44.53610 6.95013 38111 ft 392 kts 294°
2026-04-27 21:22 44.55810 6.88018 38111 ft 392 kts 294°
2026-04-27 21:23 44.58013 6.81024 38119 ft 392 kts 293°
2026-04-27 21:23 44.60211 6.74028 38121 ft 392 kts 293°
2026-04-27 21:24 44.62400 6.67021 38121 ft 392 kts 293°
2026-04-27 21:24 44.64582 6.60013 38119 ft 392 kts 293°
2026-04-27 21:25 44.66764 6.53003 38128 ft 392 kts 293°
2026-04-27 21:25 44.68950 6.45997 38132 ft 391 kts 293°
2026-04-27 21:26 44.71119 6.38991 38124 ft 391 kts 292°
2026-04-27 21:26 44.73261 6.32014 38120 ft 391 kts 292°
2026-04-27 21:27 44.75421 6.24984 38123 ft 392 kts 292°
2026-04-27 21:27 44.77577 6.17948 38116 ft 392 kts 292°
2026-04-27 21:28 44.79728 6.10907 38116 ft 391 kts 292°
2026-04-27 21:28 44.81875 6.03864 38108 ft 391 kts 292°
2026-04-27 21:29 44.84025 5.96808 38126 ft 392 kts 292°
2026-04-27 21:29 44.86172 5.89750 38125 ft 392 kts 292°
2026-04-27 21:30 44.88308 5.82697 38126 ft 391 kts 292°
2026-04-27 21:30 44.90440 5.75639 38117 ft 391 kts 292°
2026-04-27 21:31 44.92565 5.68588 38121 ft 391 kts 292°
2026-04-27 21:31 44.94682 5.61531 38113 ft 390 kts 292°
2026-04-27 21:32 44.96789 5.54475 38118 ft 390 kts 292°
2026-04-27 21:32 44.98892 5.47414 38112 ft 390 kts 292°
2026-04-27 21:33 45.00979 5.40402 38110 ft 390 kts 292°
2026-04-27 21:33 45.03076 5.33347 38103 ft 389 kts 291°
2026-04-27 21:34 45.05165 5.26285 38104 ft 389 kts 291°
2026-04-27 21:34 45.07250 5.19223 38104 ft 389 kts 291°
2026-04-27 21:35 45.09328 5.12150 38108 ft 389 kts 291°
2026-04-27 21:35 45.11401 5.05080 38103 ft 389 kts 291°
2026-04-27 21:36 45.13462 4.98012 38096 ft 388 kts 291°
2026-04-27 21:36 45.15525 4.90945 38087 ft 388 kts 291°
2026-04-27 21:37 45.17568 4.83872 38087 ft 388 kts 290°
2026-04-27 21:37 45.19403 4.76683 38088 ft 387 kts 288°
2026-04-27 21:38 45.21108 4.69438 38084 ft 387 kts 287°
2026-04-27 21:38 45.22815 4.62188 38088 ft 388 kts 288°
2026-04-27 21:39 45.24551 4.54937 38093 ft 388 kts 288°
2026-04-27 21:39 45.26292 4.47687 38098 ft 389 kts 288°
2026-04-27 21:40 45.28028 4.40418 38096 ft 389 kts 288°
2026-04-27 21:40 45.29763 4.33147 38103 ft 389 kts 288°
2026-04-27 21:41 45.31490 4.25870 38119 ft 389 kts 287°
2026-04-27 21:41 45.33212 4.18594 38128 ft 388 kts 287°
2026-04-27 21:42 45.34927 4.11333 38130 ft 387 kts 287°
2026-04-27 21:42 45.36628 4.04075 38128 ft 387 kts 287°
2026-04-27 21:43 45.38326 3.96831 38124 ft 386 kts 287°
2026-04-27 21:43 45.40020 3.89584 38113 ft 386 kts 287°
2026-04-27 21:44 45.41692 3.82387 38105 ft 386 kts 287°
2026-04-27 21:44 45.43371 3.75137 38107 ft 386 kts 287°
2026-04-27 21:45 45.45055 3.67881 38107 ft 386 kts 287°
2026-04-27 21:45 45.46725 3.60618 38107 ft 386 kts 287°
2026-04-27 21:46 45.48395 3.53346 38107 ft 386 kts 287°
2026-04-27 21:46 45.50065 3.46070 38105 ft 386 kts 287°
2026-04-27 21:47 45.51720 3.38789 38107 ft 386 kts 286°
2026-04-27 21:47 45.53374 3.31502 38118 ft 386 kts 286°
2026-04-27 21:48 45.55025 3.24218 38120 ft 386 kts 286°
2026-04-27 21:48 45.56671 3.16933 38114 ft 386 kts 286°
2026-04-27 21:49 45.58308 3.09649 38102 ft 385 kts 286°
2026-04-27 21:49 45.59933 3.02403 38098 ft 386 kts 286°
2026-04-27 21:50 45.61571 2.95085 38105 ft 387 kts 286°
2026-04-27 21:50 45.63200 2.87756 38107 ft 387 kts 286°
2026-04-27 21:51 45.64830 2.80424 38112 ft 387 kts 286°
2026-04-27 21:51 45.66458 2.73085 38118 ft 387 kts 286°
2026-04-27 21:52 45.68075 2.65734 38105 ft 388 kts 285°
2026-04-27 21:52 45.69693 2.58370 38106 ft 388 kts 285°
2026-04-27 21:53 45.71308 2.50993 38106 ft 389 kts 285°
2026-04-27 21:53 45.72909 2.43656 38105 ft 389 kts 285°
2026-04-27 21:54 45.74514 2.36271 38109 ft 389 kts 285°
2026-04-27 21:54 45.76117 2.28882 38126 ft 389 kts 285°
2026-04-27 21:55 45.77712 2.21483 38119 ft 389 kts 285°
2026-04-27 21:55 45.79032 2.15329 38119 ft 389 kts 285°
2026-04-27 21:56 45.81413 2.04215 38116 ft 389 kts 285°
2026-04-27 21:57 45.82995 1.96802 38113 ft 389 kts 285°
2026-04-27 21:57 45.84569 1.89387 38116 ft 389 kts 285°
2026-04-27 21:58 45.86135 1.81966 38115 ft 388 kts 285°
2026-04-27 21:58 45.87697 1.74554 38112 ft 388 kts 285°
2026-04-27 21:59 45.89261 1.67137 38111 ft 388 kts 285°
2026-04-27 21:59 45.90818 1.59723 38109 ft 388 kts 285°
2026-04-27 22:00 45.92365 1.52303 38105 ft 388 kts 284°
2026-04-27 22:00 45.93913 1.44874 38106 ft 388 kts 284°
2026-04-27 22:01 45.95477 1.37442 38109 ft 389 kts 286°
2026-04-27 22:01 45.97246 1.30087 38126 ft 390 kts 287°
2026-04-27 22:02 45.99085 1.22758 38121 ft 390 kts 287°
2026-04-27 22:02 46.00890 1.15400 38118 ft 390 kts 287°
2026-04-27 22:03 46.02664 1.08074 38107 ft 391 kts 287°
2026-04-27 22:03 46.04433 1.00674 38106 ft 391 kts 287°
2026-04-27 22:04 46.06199 0.93257 38104 ft 392 kts 287°
2026-04-27 22:04 46.07964 0.85832 38103 ft 392 kts 287°
2026-04-27 22:05 46.09728 0.78406 38111 ft 392 kts 287°
2026-04-27 22:05 46.11495 0.70953 37915 ft 394 kts 287°
2026-04-27 22:05 46.12370 0.67236 37596 ft 388 kts 286°
2026-04-27 22:06 46.13231 0.63576 37169 ft 384 kts 286°
2026-04-27 22:06 46.14083 0.59956 36740 ft 379 kts 286°
2026-04-27 22:06 46.14925 0.56375 36318 ft 375 kts 285°
2026-04-27 22:06 46.15759 0.52828 35877 ft 372 kts 285°
2026-04-27 22:07 46.16585 0.49314 35449 ft 368 kts 285°
2026-04-27 22:07 46.17402 0.45826 35022 ft 366 kts 285°
2026-04-27 22:07 46.18212 0.42365 34580 ft 362 kts 284°
2026-04-27 22:07 46.19014 0.38935 34165 ft 359 kts 284°
2026-04-27 22:08 46.19805 0.35539 33676 ft 355 kts 284°
2026-04-27 22:08 46.20582 0.32182 33252 ft 350 kts 284°
2026-04-27 22:08 46.21346 0.28871 32845 ft 345 kts 284°
2026-04-27 22:08 46.22093 0.25647 32440 ft 341 kts 284°
2026-04-27 22:09 46.22849 0.22376 32041 ft 337 kts 284°
2026-04-27 22:09 46.23586 0.19183 31644 ft 333 kts 284°
2026-04-27 22:09 46.24305 0.16063 31261 ft 331 kts 284°
2026-04-27 22:09 46.25030 0.12922 30881 ft 328 kts 284°
2026-04-27 22:10 46.25745 0.09808 30501 ft 326 kts 284°
2026-04-27 22:10 46.26455 0.06715 30138 ft 323 kts 284°
2026-04-27 22:10 46.27157 0.03652 29744 ft 319 kts 284°
2026-04-27 22:10 46.27848 0.00629 29385 ft 314 kts 284°
2026-04-27 22:11 46.28528 -0.02349 29052 ft 311 kts 283°
2026-04-27 22:11 46.29206 -0.05315 28719 ft 310 kts 283°
2026-04-27 22:11 46.29882 -0.08276 28387 ft 309 kts 283°
2026-04-27 22:11 46.30555 -0.11227 28039 ft 308 kts 283°
2026-04-27 22:12 46.31223 -0.14163 27711 ft 307 kts 283°
2026-04-27 22:12 46.31888 -0.17093 27369 ft 306 kts 284°
2026-04-27 22:12 46.32550 -0.20016 27015 ft 305 kts 284°
2026-04-27 22:12 46.33209 -0.22923 26669 ft 304 kts 284°
2026-04-27 22:13 46.33867 -0.25826 26319 ft 303 kts 284°
2026-04-27 22:13 46.34520 -0.28717 25953 ft 302 kts 284°
2026-04-27 22:13 46.35172 -0.31602 25591 ft 301 kts 284°
2026-04-27 22:13 46.35820 -0.34480 25218 ft 300 kts 284°
2026-04-27 22:14 46.36463 -0.37348 24839 ft 299 kts 284°
2026-04-27 22:14 46.37103 -0.40208 24467 ft 298 kts 284°
2026-04-27 22:14 46.37742 -0.43059 24070 ft 297 kts 284°
2026-04-27 22:14 46.38378 -0.45901 23686 ft 296 kts 284°
2026-04-27 22:15 46.39014 -0.48737 23270 ft 296 kts 284°
2026-04-27 22:15 46.39646 -0.51568 22889 ft 295 kts 285°
2026-04-27 22:15 46.40274 -0.54394 22511 ft 294 kts 285°
2026-04-27 22:15 46.40900 -0.57216 22147 ft 294 kts 285°
2026-04-27 22:16 46.41526 -0.60030 21781 ft 293 kts 285°
2026-04-27 22:16 46.42146 -0.62803 21417 ft 293 kts 287°
2026-04-27 22:16 46.43009 -0.65483 21033 ft 295 kts 298°
2026-04-27 22:16 46.44242 -0.67870 20642 ft 298 kts 310°
2026-04-27 22:17 46.45766 -0.69920 20250 ft 300 kts 315°
2026-04-27 22:17 46.47331 -0.71917 19859 ft 300 kts 315°
2026-04-27 22:17 46.48893 -0.73921 19475 ft 300 kts 316°
2026-04-27 22:17 46.50458 -0.75936 19083 ft 301 kts 316°
2026-04-27 22:18 46.52022 -0.77955 18696 ft 301 kts 316°
2026-04-27 22:18 46.53590 -0.79984 18295 ft 302 kts 316°
2026-04-27 22:18 46.55159 -0.82014 17884 ft 302 kts 317°
2026-04-27 22:18 46.56637 -0.84161 17507 ft 300 kts 307°
2026-04-27 22:19 46.57726 -0.86728 17122 ft 298 kts 293°
2026-04-27 22:19 46.58355 -0.89580 16765 ft 296 kts 280°
2026-04-27 22:19 46.58535 -0.92555 16390 ft 296 kts 272°
2026-04-27 22:19 46.58620 -0.95539 16026 ft 295 kts 272°
2026-04-27 22:20 46.58712 -0.98521 15658 ft 295 kts 272°
2026-04-27 22:20 46.58804 -1.01505 15294 ft 295 kts 272°
2026-04-27 22:20 46.58897 -1.04486 14931 ft 296 kts 272°
2026-04-27 22:20 46.58989 -1.07474 14566 ft 296 kts 272°
2026-04-27 22:21 46.59079 -1.10464 14200 ft 296 kts 272°
2026-04-27 22:21 46.59167 -1.13461 13822 ft 297 kts 272°
2026-04-27 22:21 46.59253 -1.16414 13438 ft 296 kts 272°
2026-04-27 22:21 46.59341 -1.19401 13062 ft 295 kts 272°
2026-04-27 22:22 46.59424 -1.22379 12694 ft 295 kts 272°
2026-04-27 22:22 46.59520 -1.25360 12334 ft 295 kts 275°
2026-04-27 22:22 46.60113 -1.28179 11968 ft 294 kts 300°
2026-04-27 22:22 46.61426 -1.30442 11631 ft 293 kts 315°
2026-04-27 22:23 46.62896 -1.32496 11335 ft 293 kts 316°
2026-04-27 22:23 46.64371 -1.34533 11040 ft 292 kts 316°
2026-04-27 22:23 46.65837 -1.36554 10751 ft 289 kts 316°
2026-04-27 22:23 46.67295 -1.38567 10462 ft 288 kts 316°
2026-04-27 22:24 46.68742 -1.40579 10172 ft 288 kts 316°
2026-04-27 22:24 46.70185 -1.42596 9873 ft 287 kts 316°
2026-04-27 22:24 46.71615 -1.44609 9563 ft 285 kts 316°
2026-04-27 22:24 46.73033 -1.46612 9243 ft 282 kts 316°
2026-04-27 22:25 46.74426 -1.48589 8931 ft 277 kts 316°
2026-04-27 22:25 46.75793 -1.50541 8623 ft 272 kts 316°
2026-04-27 22:25 46.77131 -1.52462 8304 ft 268 kts 316°
2026-04-27 22:25 46.78442 -1.54353 8005 ft 262 kts 316°
2026-04-27 22:26 46.79725 -1.56210 7707 ft 257 kts 316°
2026-04-27 22:26 46.80963 -1.58008 7410 ft 251 kts 316°
2026-04-27 22:26 46.82181 -1.59787 7122 ft 246 kts 316°
2026-04-27 22:26 46.83393 -1.61566 6828 ft 242 kts 316°
2026-04-27 22:27 46.84554 -1.63284 6547 ft 240 kts 316°
2026-04-27 22:27 46.85721 -1.65025 6238 ft 239 kts 316°
2026-04-27 22:27 46.86874 -1.66760 5932 ft 237 kts 316°
2026-04-27 22:27 46.88016 -1.68480 5626 ft 234 kts 316°
2026-04-27 22:28 46.89138 -1.70167 5317 ft 228 kts 316°
2026-04-27 22:28 46.90230 -1.71809 5021 ft 223 kts 316°
2026-04-27 22:28 46.91303 -1.73424 4721 ft 220 kts 316°
2026-04-27 22:28 46.92422 -1.74891 4500 ft 213 kts 329°
2026-04-27 22:29 46.93733 -1.75722 4355 ft 202 kts 348°
2026-04-27 22:29 46.95109 -1.75876 4162 ft 197 kts
2026-04-27 22:29 46.96424 -1.75383 3931 ft 194 kts 25°
2026-04-27 22:29 46.97624 -1.74488 3686 ft 193 kts 28°
2026-04-27 22:30 46.98817 -1.73587 3438 ft 192 kts 28°
2026-04-27 22:30 47.00014 -1.72683 3180 ft 197 kts 29°
2026-04-27 22:30 47.01234 -1.71761 2909 ft 194 kts 29°
2026-04-27 22:30 47.02412 -1.70870 2664 ft 187 kts 29°
2026-04-27 22:31 47.03552 -1.70007 2411 ft 180 kts 29°
2026-04-27 22:31 47.04615 -1.69203 2179 ft 164 kts 29°
2026-04-27 22:31 47.05590 -1.68467 1961 ft 151 kts 29°
2026-04-27 22:31 47.06497 -1.67798 1759 ft 141 kts 29°
2026-04-27 22:32 47.07342 -1.67161 1571 ft 133 kts 30°
2026-04-27 22:32 47.08117 -1.66562 1422 ft 123 kts 31°
2026-04-27 22:32 47.08869 -1.65992 1267 ft 121 kts 29°
2026-04-27 22:32 47.09612 -1.65441 1080 ft 119 kts 29°
2026-04-27 22:33 47.10343 -1.64875 929 ft 118 kts 30°
2026-04-27 22:33 47.11069 -1.64307 805 ft 120 kts 29°
2026-04-27 22:33 47.11807 -1.63732 658 ft 120 kts 28°
2026-04-27 22:33 47.12555 -1.63165 470 ft 122 kts 28°
2026-04-27 22:34 47.13313 -1.62600 300 ft 123 kts 28°
2026-04-27 22:34 47.14068 -1.62027 143 ft 122 kts 28°
2026-04-27 22:34 47.14773 -1.61483 92 ft 98 kts 27°
2026-04-27 22:34 47.15253 -1.61121 90 ft 64 kts 27°
2026-04-27 22:35 47.15575 -1.60875 88 ft 42 kts 27°
2026-04-27 22:35 47.15788 -1.60711 86 ft 25 kts 28°
2026-04-27 22:35 47.15833 -1.60581 86 ft 8 kts 104°
2026-04-27 22:35 47.15822 -1.60548 90 ft 2 kts 122°
2026-04-27 22:36 47.15812 -1.60527 91 ft 4 kts 127°
2026-04-27 22:36 47.15785 -1.60487 93 ft 6 kts 141°
2026-04-27 22:36 47.15746 -1.60445 90 ft 7 kts 145°
2026-04-27 22:36 47.15701 -1.60397 92 ft 9 kts 140°
2026-04-27 22:37 47.15652 -1.60333 90 ft 10 kts 139°
2026-04-27 22:37 47.15631 -1.60262 90 ft 7 kts 56°
2026-04-27 22:37 47.15666 -1.60234 91 ft 3 kts 36°
2026-04-27 22:37 47.15674 -1.60225 92 ft 0 kts 35°
2026-04-27 22:40 47.10090 -1.65073 986 ft 117 kts 30°
2026-04-27 22:40 47.10744 -1.64563 849 ft 117 kts 29°